QPF
0.00 0.00 0.00 0.00 0.00 0.00 0.00 0.00 0.00 0.00 0.00 0.00 0.00 0.00 0.00 0.00 0.00 0.00 0.00 0.00 0.00 0.00 0.00 0.02 0.00 0.00 0.00 0.00 0.00 0.00 0.00 0.00 0.00 0.00 0.00 0.00 0.00 0.00 0.00 0.00 0.01 0.00 0.00
0.00 0.00 0.00 0.00 0.00 0.00 0.00 0.00 0.00 0.00 0.00 0.00 0.00 0.00 0.00 0.00 0.00 0.00 0.00 0.00 0.00 0.00 0.00 0.00 0.00 0.00 0.00 0.00 0.00 0.00 0.00 0.00 0.00 0.00 0.00 0.00 0.00 0.00 0.00 0.00 0.00 0.00 0.00
0.00 0.00 0.00 0.00 0.00 0.00 0.00 0.00 0.00 0.00 0.00 0.00 0.00 0.00 0.00 0.00 0.00 0.00 0.00 0.00 0.00 0.00 0.00 0.00 0.00 0.00 0.00 0.00 0.00 0.00 0.00 0.00 0.00 0.00 0.00 0.00 0.00 0.00 0.00 0.00 0.00 0.00 0.00
0.00 0.00 0.00 0.00 0.00 0.00 0.00 0.00 0.00 0.00 0.00 0.00 0.00 0.00 0.00 0.00 0.00 0.00 0.00 0.00 0.00 0.00 0.00 0.00 0.00 0.00 0.00 0.00 0.00 0.00 0.00 0.00 0.00 0.00 0.00 0.00 0.00 0.01 0.01 0.00 0.00 0.00 0.00
0.00 0.00 0.00 0.00 0.00 0.00 0.00 0.00 0.00 0.00 0.00 0.00 0.00 0.00 0.00 0.00 0.00 0.00 0.00 0.00 0.00 0.00 0.00 0.00 0.01 0.00 0.00 0.00 0.00 0.00 0.00 0.00 0.00 0.00 0.00 0.00 0.00 0.00 0.00 0.00 0.00 0.00 0.00
0.00 0.00 0.00 0.00 0.00 0.00 0.00 0.00 0.00 0.00 0.00 0.00 0.00 0.00 0.00 0.00 0.00 0.00 0.00 0.00 0.00 0.00 0.00 0.00 0.00 0.00 0.00 0.00 0.00 0.00 0.00 0.00 0.00 0.00 0.00 0.00 0.00 0.00 0.00 0.00 0.00 0.00 0.00
0.01 0.00 0.00 0.00 0.00 0.00 0.00 0.00 0.00 0.00 0.00 0.00 0.00 0.00 0.00 0.00 0.00 0.00 0.00 0.00 0.00 0.00 0.00 0.00 0.00 0.00 0.00 0.00 0.00 0.00 0.00 0.00 0.00 0.00 0.00 0.00 0.00 0.00 0.00 0.00 0.00 0.00 0.00
0.07 0.02 0.02 0.01 0.00 0.00 0.00 0.00 0.00 0.00 0.00 0.00 0.00 0.00 0.00 0.00 0.00 0.00 0.00 0.00 0.00 0.00 0.00 0.00 0.00 0.00 0.00 0.00 0.00 0.00 0.00 0.00 0.00 0.00 0.00 0.00 0.00 0.00 0.00 0.00 0.00 0.00 0.00
0.02 0.02 0.02 0.01 0.00 0.00 0.00 0.00 0.00 0.00 0.00 0.01 0.01 0.01 0.00 0.01 0.00 0.00 0.00 0.00 0.00 0.00 0.00 0.00 0.00 0.00 0.00 0.00 0.00 0.00 0.00 0.00 0.00 0.00 0.00 0.00 0.00 0.00 0.00 0.00 0.00 0.00 0.00
0.00 0.00 0.00 0.00 0.00 0.00 0.00 0.00 0.00 0.00 0.01 0.02 0.03 0.03 0.01 0.01 0.00 0.00 0.00 0.00 0.01 0.01 0.00 0.00 0.00 0.00 0.00 0.00 0.00 0.00 0.00 0.00 0.00 0.00 0.00 0.00 0.00 0.00 0.00 0.00 0.00 0.00 0.00
0.01 0.02 0.00 0.01 0.00 0.00 0.01 0.01 0.00 0.01 0.01 0.02 0.02 0.00 0.00 0.00 0.01 0.01 0.04 0.00 0.02 0.02 0.00 0.00 0.00 0.00 0.00 0.00 0.00 0.00 0.00 0.00 0.00 0.00 0.00 0.00 0.00 0.00 0.00 0.00 0.00 0.00 0.00
0.01 0.00 0.00 0.01 0.04 0.08 0.07 0.02 0.06 0.06 0.04 0.02 0.01 0.00 0.00 0.00 0.03 0.10 0.12 0.01 0.02 0.02 0.00 0.00 0.00 0.00 0.00 0.00 0.00 0.00 0.00 0.00 0.00 0.00 0.00 0.00 0.00 0.00 0.00 0.00 0.00 0.00 0.00
0.02 0.01 0.01 0.01 0.01 0.06 0.10 0.10 0.11 0.16 0.20 0.14 0.02 0.02 0.02 0.00 0.04 0.11 0.03 0.01 0.01 0.00 0.00 0.00 0.00 0.00 0.00 0.00 0.00 0.00 0.00 0.00 0.00 0.00 0.00 0.00 0.00 0.00 0.00 0.00 0.00 0.00 0.00
0.04 0.04 0.02 0.01 0.01 0.03 0.01 0.03 0.06 0.11 0.17 0.24 0.22 0.27 0.23 0.03 0.14 0.07 0.13 0.13 0.03 0.01 0.00 0.00 0.00 0.00 0.00 0.00 0.00 0.00 0.00 0.00 0.00 0.00 0.00 0.00 0.00 0.00 0.00 0.00 0.00 0.00 0.00
0.02 0.02 0.01 0.00 0.01 0.01 0.00 0.00 0.00 0.02 0.08 0.10 0.10 0.06 0.07 0.06 0.11 0.15 0.14 0.11 0.07 0.04 0.03 0.02 0.02 0.01 0.00 0.00 0.00 0.00 0.00 0.00 0.00 0.00 0.00 0.00 0.00 0.00 0.00 0.00 0.00 0.00 0.00
0.00 0.00 0.00 0.00 0.00 0.00 0.00 0.00 0.00 0.01 0.00 0.00 0.01 0.01 0.01 0.01 0.04 0.13 0.14 0.08 0.09 0.07 0.07 0.10 0.08 0.04 0.01 0.00 0.00 0.00 0.00 0.00 0.00 0.00 0.00 0.00 0.00 0.00 0.00 0.00 0.00 0.00 0.00
0.00 0.00 0.00 0.00 0.00 0.00 0.00 0.00 0.01 0.04 0.00 0.00 0.00 0.00 0.00 0.00 0.00 0.02 0.10 0.12 0.11 0.11 0.11 0.11 0.09 0.06 0.03 0.01 0.00 0.00 0.00 0.00 0.00 0.00 0.00 0.00 0.00 0.00 0.00 0.00 0.00 0.00 0.00
0.00 0.00 0.00 0.00 0.00 0.00 0.00 0.00 0.00 0.00 0.00 0.00 0.00 0.00 0.00 0.00 0.01 0.03 0.11 0.14 0.18 0.16 0.15 0.08 0.04 0.05 0.03 0.01 0.01 0.00 0.00 0.00 0.00 0.00 0.00 0.00 0.00 0.00 0.00 0.00 0.00 0.00 0.00
0.00 0.00 0.00 0.00 0.00 0.00 0.00 0.00 0.00 0.00 0.00 0.00 0.00 0.00 0.00 0.00 0.01 0.03 0.04 0.08 0.09 0.07 0.06 0.03 0.02 0.06 0.03 0.00 0.00 0.00 0.00 0.00 0.00 0.00 0.00 0.00 0.00 0.00 0.00 0.00 0.00 0.00 0.00
0.00 0.00 0.00 0.00 0.00 0.00 0.01 0.01 0.00 0.00 0.00 0.00 0.00 0.00 0.00 0.00 0.01 0.01 0.00 0.00 0.00 0.00 0.01 0.00 0.01 0.01 0.01 0.00 0.00 0.00 0.00 0.00 0.00 0.00 0.00 0.00 0.00 0.00 0.00 0.00 0.00 0.00 0.00
0.00 0.00 0.00 0.00 0.00 0.00 0.00 0.01 0.01 0.01 0.00 0.00 0.00 0.00 0.01 0.00 0.00 0.01 0.02 0.04 0.03 0.03 0.03 0.01 0.00 0.01 0.01 0.00 0.00 0.00 0.00 0.00 0.00 0.00 0.00 0.00 0.00 0.00 0.00 0.00 0.00 0.00 0.00
0.00 0.00 0.00 0.00 0.00 0.00 0.00 0.01 0.01 0.02 0.02 0.01 0.01 0.01 0.01 0.00 0.00 0.00 0.03 0.04 0.05 0.05 0.05 0.01 0.01 0.05 0.07 0.05 0.01 0.00 0.00 0.00 0.00 0.00 0.00 0.00 0.00 0.00 0.00 0.00 0.00 0.00 0.00
0.00 0.00 0.00 0.00 0.01 0.02 0.01 0.01 0.01 0.02 0.02 0.03 0.03 0.03 0.03 0.03 0.02 0.02 0.01 0.02 0.05 0.04 0.03 0.01 0.00 0.01 0.01 0.03 0.02 0.00 0.00 0.00 0.00 0.00 0.00 0.00 0.00 0.00 0.00 0.00 0.00 0.00 0.00
0.00 0.00 0.01 0.02 0.02 0.02 0.02 0.02 0.01 0.01 0.02 0.02 0.02 0.02 0.03 0.03 0.02 0.01 0.00 0.01 0.02 0.02 0.03 0.02 0.01 0.01 0.01 0.02 0.01 0.00 0.00 0.00 0.00 0.00 0.00 0.00 0.00 0.00 0.00 0.00 0.00 0.00 0.00
0.00 0.00 0.01 0.03 0.02 0.02 0.02 0.02 0.02 0.02 0.01 0.01 0.01 0.01 0.01 0.01 0.01 0.01 0.01 0.01 0.02 0.01 0.01 0.01 0.00 0.01 0.01 0.01 0.02 0.00 0.00 0.00 0.00 0.00 0.00 0.00 0.00 0.00 0.00 0.00 0.00 0.00 0.00
0.00 0.00 0.01 0.01 0.03 0.03 0.01 0.01 0.00 0.01 0.01 0.01 0.01 0.01 0.01 0.01 0.01 0.00 0.01 0.01 0.01 0.01 0.01 0.01 0.01 0.01 0.01 0.03 0.09 0.09 0.06 0.06 0.03 0.04 0.03 0.00 0.00 0.00 0.00 0.00 0.00 0.00 0.00
MSLP
1010.22 1010.72 1011.14 1011.59 1011.92 1012.32 1012.63 1012.81 1012.88 1012.99 1013.03 1013.18 1013.23 1013.40 1013.49 1013.66 1013.97 1014.23 1014.75 1015.17 1015.60 1016.10 1016.26 1016.65 1016.89 1016.87 1017.10 1016.99 1016.98 1016.96 1017.09 1017.02 1017.43 1017.53 1017.61 1017.93 1018.02 1018.18 1018.29 1018.34 1018.40 1018.33 1018.08
1009.38 1010.01 1010.62 1011.21 1011.55 1012.07 1012.44 1012.48 1012.63 1012.77 1012.90 1013.08 1013.16 1013.24 1013.37 1013.51 1013.72 1014.11 1014.65 1015.03 1015.35 1016.04 1016.32 1016.63 1016.99 1017.16 1017.30 1017.14 1017.18 1017.53 1017.17 1016.68 1017.08 1017.73 1018.24 1018.34 1018.47 1018.57 1018.67 1018.65 1018.75 1018.80 1018.60
1008.87 1009.72 1010.21 1010.55 1011.07 1011.52 1011.99 1012.14 1012.21 1012.42 1012.71 1012.96 1013.00 1013.11 1013.21 1013.37 1013.50 1013.79 1014.26 1014.95 1015.18 1015.82 1016.27 1016.56 1016.97 1017.33 1017.73 1017.56 1017.69 1017.72 1017.34 1017.10 1017.29 1017.91 1018.39 1018.70 1018.93 1018.99 1019.15 1019.11 1019.23 1019.19 1018.96
1008.70 1009.35 1009.85 1010.08 1010.43 1010.77 1011.38 1011.74 1011.74 1011.95 1012.31 1012.60 1012.63 1012.72 1012.86 1013.06 1013.27 1013.67 1014.17 1014.82 1015.35 1015.87 1016.27 1016.65 1017.00 1017.38 1017.61 1017.83 1018.00 1017.97 1017.86 1018.15 1018.37 1018.73 1019.07 1019.41 1019.38 1019.47 1019.46 1019.64 1019.79 1019.85 1019.67
1008.13 1008.69 1009.10 1009.37 1009.66 1010.22 1010.65 1011.23 1011.34 1011.52 1011.78 1012.08 1012.30 1012.35 1012.50 1012.71 1012.97 1013.41 1013.98 1014.60 1015.31 1016.06 1016.63 1017.00 1017.21 1017.42 1017.55 1017.81 1018.01 1018.25 1018.40 1018.76 1019.08 1019.31 1019.57 1019.54 1019.63 1019.57 1019.73 1020.11 1020.39 1020.38 1020.34
1008.08 1008.30 1008.66 1008.81 1009.17 1009.65 1009.90 1010.52 1011.04 1011.03 1011.26 1011.69 1012.00 1012.11 1012.23 1012.36 1012.50 1012.99 1013.55 1014.32 1015.18 1015.92 1016.88 1017.36 1017.53 1017.71 1017.88 1018.09 1018.22 1018.37 1018.46 1018.85 1019.38 1019.70 1020.01 1019.90 1020.06 1019.94 1019.91 1020.12 1020.39 1020.43 1020.73
1008.17 1008.41 1008.54 1008.63 1008.94 1009.43 1009.52 1010.03 1010.55 1010.67 1010.85 1011.25 1011.48 1011.69 1011.90 1011.99 1012.21 1012.56 1013.19 1013.94 1014.78 1015.67 1016.54 1017.15 1017.50 1017.88 1018.02 1018.21 1018.53 1018.72 1018.89 1019.04 1019.40 1019.73 1019.90 1019.97 1020.01 1019.89 1019.86 1020.11 1020.61 1020.95 1021.36
1008.83 1008.13 1008.18 1008.28 1008.62 1009.16 1009.34 1009.66 1010.02 1010.10 1010.32 1010.76 1010.97 1011.16 1011.41 1011.60 1011.90 1012.53 1013.09 1013.73 1014.61 1015.34 1016.08 1016.66 1017.05 1017.44 1017.81 1018.27 1018.61 1018.99 1019.33 1019.45 1019.78 1020.16 1020.27 1019.98 1019.77 1019.60 1019.84 1020.07 1020.62 1021.14 1021.58
1008.91 1008.40 1008.38 1007.81 1008.25 1008.90 1008.98 1009.23 1009.48 1009.63 1009.77 1010.14 1010.28 1010.61 1010.97 1011.30 1011.60 1012.28 1012.96 1013.65 1014.58 1015.23 1015.68 1016.28 1016.79 1017.18 1017.33 1017.90 1018.50 1019.10 1019.64 1019.99 1019.90 1019.92 1019.94 1019.73 1019.51 1019.58 1019.90 1020.34 1020.84 1021.24 1021.72
1009.56 1008.99 1008.39 1007.88 1008.04 1008.46 1008.63 1008.82 1008.90 1008.94 1009.24 1009.53 1009.89 1010.06 1010.23 1010.70 1011.34 1012.08 1012.84 1013.62 1014.58 1015.26 1015.62 1016.00 1016.41 1016.89 1017.09 1017.31 1018.05 1018.67 1019.49 1019.85 1019.98 1020.06 1020.09 1019.97 1019.87 1019.96 1020.15 1020.24 1020.54 1020.95 1021.74
1010.00 1009.49 1008.73 1008.10 1007.85 1007.91 1008.21 1008.39 1008.64 1008.69 1008.93 1009.23 1009.56 1009.70 1009.94 1010.44 1011.19 1011.70 1012.44 1013.20 1014.02 1014.79 1015.27 1016.00 1016.32 1016.80 1017.17 1017.25 1017.43 1017.81 1018.49 1019.07 1019.66 1020.10 1020.18 1020.36 1020.31 1020.49 1020.42 1020.41 1020.46 1020.69 1021.04
1010.18 1009.69 1009.00 1008.49 1007.81 1007.80 1008.15 1008.25 1008.32 1008.57 1008.91 1009.15 1009.46 1009.72 1009.78 1010.32 1010.79 1011.73 1012.46 1012.87 1013.52 1014.36 1014.94 1015.34 1015.94 1016.52 1017.10 1017.52 1017.61 1017.83 1018.28 1018.72 1019.31 1020.03 1020.54 1020.83 1021.02 1021.00 1021.00 1020.88 1020.91 1020.77 1020.84
1010.41 1010.24 1009.75 1008.98 1008.47 1008.26 1008.40 1008.55 1008.63 1008.73 1009.07 1009.21 1009.55 1009.77 1010.18 1010.10 1010.73 1011.14 1011.81 1012.61 1013.10 1013.48 1014.15 1014.76 1015.56 1016.34 1016.87 1017.33 1017.68 1018.00 1018.21 1018.53 1019.07 1019.72 1020.50 1020.97 1021.16 1021.25 1021.39 1021.31 1021.22 1021.32 1021.60
1011.02 1010.58 1010.11 1009.37 1009.06 1008.98 1009.09 1009.22 1009.47 1009.80 1009.81 1010.15 1010.07 1009.83 1010.01 1010.07 1010.78 1011.56 1012.35 1012.89 1012.84 1013.43 1014.07 1014.76 1015.37 1016.30 1016.75 1017.07 1017.52 1017.97 1018.08 1018.25 1018.64 1019.19 1020.06 1020.64 1021.14 1021.40 1021.51 1021.65 1021.81 1022.03 1022.10
1011.52 1011.10 1010.40 1009.83 1009.57 1009.54 1009.76 1010.13 1010.23 1010.59 1010.60 1010.91 1010.93 1010.71 1010.79 1010.89 1011.00 1010.78 1011.39 1012.36 1012.75 1013.18 1014.36 1015.28 1016.02 1016.48 1016.64 1016.94 1017.31 1017.49 1017.59 1018.07 1018.10 1018.70 1019.69 1020.24 1020.84 1021.36 1021.77 1022.04 1022.29 1022.54 1022.64
1011.81 1011.54 1011.03 1010.50 1010.30 1009.77 1009.88 1010.51 1010.66 1010.94 1011.15 1011.34 1011.39 1011.42 1011.33 1011.76 1011.61 1011.64 1011.41 1011.71 1012.08 1012.75 1013.80 1014.58 1015.63 1016.04 1016.37 1016.33 1016.41 1016.90 1017.11 1017.37 1017.74 1018.35 1019.07 1019.51 1020.42 1021.04 1021.50 1021.83 1022.24 1022.70 1022.99
1012.29 1012.09 1011.55 1011.30 1010.97 1010.84 1010.57 1010.42 1010.83 1011.34 1011.31 1011.54 1011.73 1012.01 1012.07 1012.05 1011.74 1011.66 1011.91 1011.89 1012.10 1012.68 1013.43 1014.32 1014.35 1015.34 1015.49 1015.70 1015.67 1016.07 1016.48 1016.57 1017.07 1017.61 1018.31 1019.12 1019.68 1020.50 1020.99 1021.35 1021.86 1022.48 1023.16
1012.83 1012.66 1012.22 1012.06 1011.77 1011.47 1011.10 1011.01 1011.01 1011.05 1011.35 1011.89 1012.13 1012.36 1012.22 1011.83 1011.42 1011.05 1011.73 1012.84 1013.49 1013.30 1013.66 1014.47 1014.91 1015.40 1015.15 1015.33 1015.68 1015.58 1015.86 1016.05 1016.41 1016.96 1017.70 1018.49 1019.06 1019.81 1020.53 1020.86 1021.32 1021.74 1022.44
1013.47 1013.28 1012.84 1012.43 1012.16 1012.05 1011.92 1011.76 1011.62 1011.32 1011.59 1012.17 1012.28 1012.71 1012.58 1012.37 1011.97 1011.70 1011.97 1012.67 1013.48 1013.76 1013.83 1013.99 1014.47 1014.73 1014.40 1014.64 1015.07 1015.08 1015.11 1015.58 1015.73 1016.28 1016.99 1017.76 1018.47 1019.06 1019.78 1020.32 1020.70 1021.16 1021.72
1014.12 1013.84 1013.30 1013.07 1012.89 1012.89 1012.82 1012.79 1012.57 1012.40 1012.68 1013.17 1013.33 1013.25 1012.74 1012.67 1012.82 1012.60 1012.75 1012.94 1013.23 1013.61 1013.91 1014.13 1014.10 1014.14 1014.32 1014.65 1014.68 1014.69 1014.61 1014.77 1015.33 1015.79 1016.37 1017.03 1017.77 1018.33 1018.98 1019.69 1020.13 1020.62 1021.01
1014.51 1014.44 1013.97 1013.91 1013.85 1013.90 1013.96 1013.91 1013.87 1013.72 1013.74 1014.01 1014.06 1014.00 1013.29 1013.07 1013.21 1013.18 1013.19 1013.23 1013.31 1013.45 1013.52 1013.67 1013.74 1013.81 1014.02 1014.24 1014.24 1014.46 1014.35 1014.43 1014.84 1015.35 1015.76 1016.32 1016.92 1017.72 1018.15 1018.83 1019.32 1019.69 1020.44
1014.91 1015.29 1014.98 1014.88 1014.90 1014.84 1015.00 1015.08 1015.03 1015.03 1015.01 1015.01 1014.91 1014.70 1014.14 1013.83 1014.12 1014.08 1013.90 1013.86 1013.82 1013.51 1013.17 1013.27 1013.30 1013.47 1013.47 1013.61 1013.77 1014.05 1014.24 1014.20 1014.43 1015.04 1015.32 1015.77 1016.12 1016.42 1017.04 1017.97 1018.51 1018.89 1019.65
1015.70 1016.05 1015.98 1015.84 1015.66 1015.62 1015.72 1015.97 1015.98 1015.96 1015.98 1015.97 1016.01 1015.84 1015.50 1015.35 1015.43 1015.22 1015.13 1015.11 1015.04 1014.67 1014.07 1013.55 1013.51 1013.46 1013.13 1013.19 1013.28 1013.55 1014.12 1014.04 1013.91 1014.09 1014.74 1015.42 1015.80 1015.94 1016.32 1017.12 1017.60 1018.12 1018.71
1016.67 1016.89 1016.95 1016.89 1016.60 1016.35 1016.58 1016.92 1017.02 1016.98 1016.99 1016.90 1016.94 1016.90 1016.74 1016.67 1016.65 1016.52 1016.32 1016.09 1015.89 1015.69 1015.34 1015.05 1014.78 1014.31 1013.53 1013.45 1013.83 1014.00 1014.18 1014.28 1014.10 1014.14 1014.66 1014.96 1015.25 1015.41 1015.71 1016.33 1016.81 1017.15 1017.78
1017.16 1017.61 1017.64 1017.55 1017.42 1017.13 1017.12 1017.85 1017.68 1017.83 1017.82 1017.77 1017.82 1017.63 1017.75 1017.64 1017.41 1017.34 1017.13 1016.84 1016.65 1016.54 1016.37 1016.16 1015.95 1015.55 1015.15 1015.08 1014.95 1014.93 1014.78 1014.82 1014.15 1014.02 1014.49 1014.98 1015.06 1014.90 1015.24 1015.62 1016.02 1016.48 1016.98
1017.29 1017.55 1017.77 1017.74 1018.00 1017.57 1018.48 1018.67 1018.28 1018.34 1018.42 1018.25 1018.15 1018.04 1018.25 1018.18 1017.94 1017.75 1017.68 1017.41 1017.49 1017.57 1017.33 1017.08 1016.72 1016.37 1016.01 1015.94 1015.69 1015.32 1014.97 1014.17 1013.86 1013.79 1014.64 1015.56 1015.65 1014.86 1015.08 1015.28 1015.45 1015.79 1016.24
Thickness
5838 5835 5833 5831 5831 5828 5825 5825 5824 5824 5824 5821 5819 5817 5815 5812 5809 5804 5797 5792 5783 5775 5770 5762 5756 5750 5740 5734 5726 5715 5702 5688 5669 5658 5646 5630 5615 5603 5595 5589 5583 5582 5584
5844 5840 5834 5831 5830 5826 5824 5826 5825 5823 5823 5821 5818 5817 5815 5812 5810 5803 5795 5790 5784 5775 5769 5762 5755 5747 5738 5733 5724 5710 5704 5695 5677 5657 5643 5629 5616 5606 5597 5593 5586 5581 5582
5843 5839 5837 5833 5829 5828 5825 5826 5826 5824 5822 5819 5818 5815 5813 5811 5809 5806 5797 5789 5784 5776 5769 5762 5754 5745 5734 5730 5720 5710 5704 5693 5678 5660 5645 5631 5619 5609 5599 5594 5589 5583 5580
5841 5839 5835 5834 5832 5831 5828 5826 5828 5826 5822 5818 5818 5815 5813 5810 5808 5805 5796 5787 5780 5773 5767 5761 5754 5745 5736 5729 5719 5709 5700 5686 5673 5657 5642 5629 5622 5611 5602 5594 5588 5582 5580
5843 5841 5839 5838 5836 5832 5831 5827 5828 5826 5824 5820 5817 5816 5813 5810 5808 5804 5796 5787 5777 5769 5762 5756 5751 5747 5740 5731 5721 5710 5699 5684 5669 5656 5642 5634 5624 5616 5605 5594 5586 5580 5576
5839 5839 5840 5841 5836 5832 5833 5829 5824 5826 5824 5820 5815 5813 5811 5811 5810 5804 5798 5788 5777 5768 5759 5751 5747 5744 5736 5729 5723 5713 5702 5687 5671 5658 5645 5639 5628 5619 5610 5599 5591 5585 5578
5833 5833 5834 5836 5832 5829 5831 5827 5822 5823 5823 5819 5816 5813 5810 5810 5808 5803 5799 5790 5779 5768 5759 5751 5746 5742 5735 5727 5722 5713 5703 5693 5679 5665 5652 5643 5635 5628 5617 5607 5596 5587 5580
5819 5830 5832 5832 5830 5828 5828 5824 5822 5824 5823 5820 5817 5814 5811 5810 5806 5801 5796 5788 5777 5769 5761 5754 5748 5743 5738 5728 5719 5711 5702 5692 5681 5667 5654 5650 5644 5638 5627 5615 5604 5595 5588
5815 5823 5828 5832 5829 5826 5825 5823 5822 5823 5823 5821 5820 5816 5812 5808 5803 5798 5794 5785 5774 5766 5761 5755 5749 5744 5741 5733 5722 5712 5700 5690 5682 5673 5663 5657 5652 5647 5636 5621 5611 5602 5595
5805 5815 5823 5830 5828 5824 5824 5823 5823 5825 5823 5822 5819 5818 5814 5808 5801 5795 5792 5782 5770 5763 5759 5755 5751 5746 5741 5737 5727 5716 5703 5694 5685 5677 5668 5661 5656 5650 5642 5633 5623 5613 5601
5797 5804 5813 5822 5826 5826 5823 5823 5821 5821 5821 5819 5817 5815 5812 5807 5798 5794 5792 5783 5771 5762 5758 5751 5748 5743 5738 5735 5732 5725 5714 5704 5693 5683 5675 5667 5660 5652 5647 5641 5631 5626 5618
5787 5794 5804 5814 5819 5820 5817 5818 5819 5818 5814 5813 5810 5808 5808 5804 5797 5789 5784 5781 5772 5762 5757 5753 5746 5741 5734 5730 5728 5724 5717 5709 5700 5688 5678 5669 5658 5653 5649 5644 5638 5631 5629
5773 5780 5788 5799 5805 5808 5809 5811 5810 5811 5808 5805 5804 5802 5799 5799 5795 5790 5784 5779 5771 5766 5760 5754 5744 5736 5731 5728 5725 5721 5715 5710 5703 5693 5681 5672 5663 5656 5650 5647 5642 5634 5628
5762 5769 5777 5787 5791 5795 5796 5798 5797 5795 5797 5794 5797 5798 5796 5796 5790 5783 5776 5771 5769 5761 5753 5745 5740 5732 5727 5725 5721 5717 5716 5711 5706 5699 5688 5678 5668 5658 5653 5650 5643 5637 5630
5746 5755 5765 5774 5780 5782 5783 5783 5785 5782 5785 5785 5787 5790 5787 5787 5784 5785 5779 5770 5765 5757 5745 5736 5728 5724 5723 5720 5719 5717 5717 5712 5710 5703 5692 5683 5673 5663 5655 5650 5644 5637 5633
5732 5740 5750 5756 5764 5773 5775 5771 5769 5770 5770 5770 5771 5775 5777 5772 5770 5770 5772 5768 5763 5754 5744 5736 5725 5720 5717 5719 5719 5716 5715 5715 5711 5706 5697 5689 5679 5670 5662 5656 5649 5642 5635
5716 5723 5734 5740 5747 5753 5760 5765 5765 5761 5760 5762 5763 5761 5760 5760 5762 5763 5760 5759 5753 5748 5741 5732 5730 5721 5720 5718 5718 5715 5713 5715 5713 5709 5700 5692 5686 5676 5668 5663 5656 5647 5637
5702 5707 5718 5724 5732 5739 5746 5751 5757 5758 5758 5756 5751 5750 5751 5754 5757 5757 5751 5742 5736 5735 5732 5724 5719 5714 5715 5711 5709 5711 5711 5711 5711 5710 5704 5696 5689 5682 5672 5667 5662 5656 5647
5684 5691 5702 5712 5719 5724 5730 5735 5741 5749 5749 5744 5745 5740 5741 5740 5742 5744 5741 5733 5726 5723 5723 5721 5716 5714 5715 5712 5708 5709 5710 5706 5708 5707 5704 5700 5692 5686 5679 5672 5667 5661 5655
5667 5675 5686 5696 5702 5707 5711 5716 5722 5729 5730 5726 5727 5728 5732 5732 5728 5728 5725 5721 5716 5713 5713 5711 5712 5712 5710 5706 5706 5707 5707 5707 5703 5703 5702 5699 5695 5689 5682 5675 5671 5665 5662
5653 5660 5669 5678 5683 5687 5692 5696 5701 5707 5712 5711 5712 5711 5716 5723 5719 5716 5711 5706 5707 5706 5708 5708 5710 5710 5708 5705 5706 5705 5705 5705 5701 5699 5699 5699 5697 5689 5684 5678 5674 5670 5663
5641 5643 5650 5658 5665 5669 5672 5676 5681 5686 5690 5693 5695 5699 5703 5708 5704 5702 5700 5700 5700 5703 5709 5708 5709 5708 5707 5706 5706 5706 5705 5705 5702 5695 5696 5696 5698 5696 5691 5682 5679 5676 5668
5623 5626 5633 5639 5648 5654 5657 5659 5663 5668 5672 5675 5677 5680 5685 5688 5686 5687 5687 5688 5687 5691 5696 5700 5702 5702 5703 5705 5706 5707 5704 5704 5703 5702 5695 5692 5693 5693 5692 5685 5681 5678 5675
5605 5609 5615 5622 5629 5638 5640 5642 5645 5648 5653 5657 5659 5663 5666 5669 5670 5672 5673 5675 5676 5679 5682 5683 5684 5688 5695 5698 5698 5699 5699 5698 5695 5695 5691 5690 5689 5690 5690 5686 5682 5681 5678
5591 5595 5600 5606 5612 5621 5626 5625 5630 5632 5635 5639 5641 5647 5649 5652 5656 5658 5660 5663 5664 5665 5668 5670 5673 5675 5680 5683 5685 5685 5688 5688 5689 5690 5686 5682 5684 5687 5685 5685 5683 5679 5676
5580 5585 5589 5594 5598 5607 5603 5607 5615 5618 5621 5626 5630 5635 5636 5639 5644 5647 5650 5653 5654 5654 5656 5659 5664 5668 5670 5670 5674 5677 5680 5684 5686 5685 5678 5672 5673 5679 5679 5680 5681 5680 5677